SCP
-0 -0 0 0 0 0 0 -0 0 0 0 0 0 -0 0 0 0 0 0 0 0 -0 -0 -0 0 0 0 0 -0 -0 0 -0 -0 -0 -0 -0 -0 -0 -0 -0 -0 -0 0 -0 -0 -0 -0 0 0
-0 0 0 0 0 0 0 0 -0 0 0 0 0 0 0 0 0 -0 0 0 -0 -0 -0 -0 0 0 0 0 0 -0 -0 0 -0 -0 -0 -0 -0 -0 -0 -0 -0 -0 -0 -0 -0 -0 0 0 0
-0 0 0 0 0 0 0 0 0 0 0 -0 -0 0 0 0 0 -0 0 0 -0 -0 -0 0 0 0 0 0 0 -0 -0 -0 -0 -0 -0 -0 -0 -0 -0 -0 -0 -0 0 -0 -0 -0 0 0 0
0 0 0 0 0 0 0 0 0 0 0 0 0 0 0 0 0 -0 -0 -0 -0 -0 -0 0 0 0 0 0 0 -0 -0 -0 -0 -0 -0 -0 -0 -0 -0 -0 -0 -0 0 -0 -0 -0 0 0 0
0 0 0 0 0 0 0 0 0 0 0 0 0 0 0 0 -0 -0 0 0 0 -0 0 0 0 0 0 0 0 0 0 0 0 -0 -0 -0 -0 -0 -0 -0 0 0 0 0 -0 -0 0 0 0
0 0 0 0 0 0 0 0 -0 0 0 0 0 0 0 0 -0 -0 0 0 0 -0 -0 0 0 0 0 0 0 0 0 0 0 0 -0 -0 -0 -0 -0 0 0 0 0 0 0 0 0 0 0
0 0 0 0 0 0 0 0 -0 0 0 0 0 0 0 -0 -0 -0 0 0 -0 0 0 -0 -0 0 0 0 0 0 0 0 0 0 -0 0 0 0 0 0 0 0 0 0 0 0 0 0 0
0 0 0 0 0 0 0 0 0 0 0 0 0 0 0 0 0 0 0 0 0 -0 -0 0 -0 0 0 0 0 0 0 0 -0 -0 0 0 0 0 0 0 0 0 0 0 0 0 0 0 0
0 0 0 0 0 0 0 0 0 0 0 0 0 0 0 0 0 0 0 0 0 0 -0 -0 -0 -0 0 0 0 0 0 0 0 0 0 0 0 0 0 0 0 0 0 0 0 0 0 0 0
0 0 0 0 0 0 0 0 0 0 0 0 0 0 0 0 0 0 0 0 0 0 0 0 0 -0 0 0 0 0 0 0 0 0 0 0 0 0 0 0 0 0 0 0 0 0 0 0 0
0 0 0 0 0 0 0 0 0 0 0 0 0 -0 0 0 0 0 0 0 0 0 0 0 0 0 0 0 0 0 0 0 0 0 0 0 0 0 0 0 0 0 0 0 0 0 0 0 0
0 0 0 0 0 0 0 0 0 0 0 0 0 0 0 -0 -0 -0 -0 0 0 0 0 0 0 0 0 0 0 0 0 0 0 0 0 0 0 0 0 0 0 0 0 0 0 0 0 0 0
0 0 0 0 0 0 0 0 0 0 0 0 0 0 0 -0 -0 -0 -0 -0 0 0 0 0 0 0 0 0 0 0 0 0 0 0 0 0 0 0 0 0 0 0 0 0 0 0 0 0 0
0 0 0 0 0 0 0 0 0 0 0 0 0 0 0 0 -0 -0 -0 -0 -0 -0 0 0 0 0 0 0 0 0 0 0 0 0 0 0 0 0 0 0 0 0 0 0 0 0 0 0 0
0 0 0 0 0 0 0 0 0 0 0 0 0 0 0 0 0 -0 -0 -0 0 0 0 0 0 0 0 0 0 0 0 0 0 0 0 0 0 0 0 0 0 0 0 0 0 0 0 0 0
0 0 0 0 0 0 0 0 0 0 0 0 0 0 0 0 0 0 0 0 0 0 0 0 0 0 0 0 0 0 0 0 0 0 0 0 0 0 0 0 0 0 0 0 0 0 0 0 0
0 0 0 0 0 0 0 0 0 0 0 0 0 0 0 0 0 0 0 0 0 0 0 0 0 0 0 0 0 0 0 0 0 0 0 0 0 0 0 0 0 0 0 0 0 0 0 0 0
0 0 0 0 0 0 0 0 0 0 0 0 0 0 0 0 0 0 0 0 0 0 0 0 0 0 0 0 0 0 0 0 0 0 0 0 0 0 0 0 0 0 0 0 0 0 0 0 0
0 0 0 0 0 0 0 0 0 0 0 0 0 0 0 0 0 0 0 0 0 0 0 0 0 0 0 0 0 0 0 0 0 0 0 0 0 0 0 0 0 0 0 0 0 0 0 0 0
0 0 0 0 0 0 0 0 0 0 0 0 0 0 0 0 0 0 0 0 0 0 0 0 0 0 0 0 0 0 0 0 0 0 0 0 0 0 0 0 0 0 0 0 0 0 0 0 0
0 0 0 0 0 0 0 0 0 0 0 0 0 0 0 0 0 0 0 0 0 0 0 0 0 0 0 0 0 0 0 0 0 0 0 0 0 0 0 0 0 0 0 0 0 0 0 0 0
0 0 0 0 0 0 0 0 0 0 0 0 0 0 0 0 0 0 0 0 0 0 0 0 0 0 0 0 0 0 0 0 0 0 0 0 0 0 0 0 0 0 0 0 0 0 0 0 0
0 0 0 0 0 0 0 0 0 0 0 0 0 0 0 0 0 0 0 0 0 0 0 0 0 0 0 0 0 0 0 0 0 0 0 0 0 0 0 0 0 0 0 0 0 0 0 0 0
0 0 0 0 0 0 0 0 0 0 0 0 0 0 0 0 0 0 0 0 0 0 0 0 0 0 0 0 0 0 0 0 0 0 0 0 0 0 0 0 0 0 0 0 0 0 0 0 0
0 0 0 0 0 0 0 0 0 0 0 0 0 0 0 0 0 0 0 0 0 0 0 0 0 0 0 0 0 0 0 0 0 0 0 0 0 0 0 0 0 0 0 0 0 0 0 0 0
0 0 0 0 0 0 0 0 0 0 0 0 0 0 0 0 0 0 0 0 0 0 0 0 0 0 0 0 0 0 0 0 0 0 0 0 0 0 0 0 0 0 0 0 0 0 0 0 0
0 0 0 0 0 0 0 0 0 0 0 0 0 0 0 0 0 0 0 0 0 0 0 0 0 0 0 0 0 0 0 0 0 0 0 0 0 0 0 0 0 0 0 0 0 0 0 0 0
0 0 0 0 0 0 0 0 0 0 0 0 0 0 0 0 0 0 0 0 0 0 0 0 0 0 0 0 0 0 0 0 0 0 0 0 0 0 0 0 0 0 0 0 0 0 0 0 0
0 0 0 0 0 0 0 0 0 0 0 0 0 0 0 0 0 0 0 0 0 0 0 0 0 0 0 0 0 0 0 0 0 0 0 0 0 0 0 0 0 0 0 0 0 0 0 0 0
0 0 0 0 0 0 0 0 0 0 0 0 0 0 0 0 0 0 0 0 0 0 0 0 0 0 0 0 0 0 0 0 0 0 0 0 0 0 0 0 0 0 0 0 0 0 0 0 0
Wind_Speed_500mb
6 13 8 3 9 8 4 6 2 11 14 6 22 5 1 6 4 6 12 35 37 44 40 37 32 27 26 26 24 25 27 22 19 19 16 13 11 11 11 12 13 13 14 15 15 17 17 18 19
6 9 4 5 9 11 7 5 10 8 10 19 16 7 5 5 2 1 21 38 44 42 40 38 34 30 28 26 23 24 23 20 17 15 14 12 10 9 10 10 9 9 10 11 12 12 11 13 15
4 5 6 5 4 5 5 7 12 15 13 14 11 1 3 3 2 8 16 41 47 43 39 38 34 32 29 28 24 23 23 18 15 13 12 11 9 7 7 6 4 5 5 7 7 8 7 8 10
3 2 1 9 4 3 4 6 13 23 7 5 5 9 5 5 3 11 30 42 44 44 40 38 34 32 27 26 27 23 20 17 13 12 10 9 8 6 5 4 3 2 1 1 1 2 3 4 5
1 3 7 5 2 1 2 1 17 17 9 6 4 7 4 4 7 17 40 42 43 43 40 37 35 30 29 26 25 25 22 16 13 11 10 10 9 8 6 6 5 5 4 4 4 5 6 7 7
4 3 9 10 2 0 1 9 17 9 7 9 3 7 5 8 10 21 38 38 41 40 39 36 35 31 30 28 25 23 21 18 16 13 12 11 11 11 12 12 10 10 8 8 9 10 11 12 14
4 5 4 3 1 3 4 15 13 10 9 8 4 2 5 10 17 22 37 37 42 41 38 35 35 32 30 29 28 26 25 22 21 21 18 16 15 15 15 16 15 15 14 14 14 14 15 16 18
2 5 6 5 6 5 10 11 4 7 6 6 6 2 7 14 17 25 37 37 42 41 39 36 34 33 33 31 28 27 27 28 26 23 21 20 20 20 20 20 20 19 18 19 19 19 20 21 22
3 7 9 6 9 7 11 11 5 6 6 6 6 2 4 8 20 28 39 38 42 45 43 40 36 33 31 31 31 30 30 29 27 26 25 25 24 23 23 23 23 22 22 22 22 22 22 22 22
9 8 7 3 2 5 13 9 12 8 8 8 6 11 9 11 23 28 38 43 46 48 48 44 41 37 34 32 30 31 32 32 33 32 30 29 27 26 26 26 24 22 21 22 23 24 25 26 26
6 15 8 7 3 3 11 9 8 8 7 8 6 10 14 16 25 28 32 37 41 45 48 48 46 42 39 37 34 34 34 34 35 34 33 34 32 32 31 30 28 28 28 26 28 29 31 31 32
11 7 8 11 7 7 8 8 7 9 5 8 3 7 10 16 21 24 26 30 36 41 43 45 47 46 43 41 39 38 39 38 38 38 37 39 39 38 36 36 34 35 34 35 35 36 37 39 39
9 4 5 2 6 5 7 2 3 9 8 13 12 8 8 13 17 20 22 23 25 33 39 43 45 46 45 46 46 45 43 43 39 41 40 40 42 43 41 41 41 41 40 40 41 43 44 45 45
2 4 2 2 6 4 6 4 3 1 7 10 11 10 10 12 17 21 24 25 27 23 24 33 39 42 43 46 46 45 44 43 43 43 41 42 43 45 46 46 48 46 44 44 45 48 49 51 51
4 6 5 9 5 4 8 9 13 7 14 14 13 11 13 13 18 23 24 28 29 29 29 28 29 35 42 44 46 47 48 45 47 47 45 46 46 46 47 50 52 50 46 48 50 53 53 55 56
8 4 13 7 9 1 9 25 8 6 6 7 13 14 17 17 18 19 20 26 30 32 34 34 35 36 37 42 45 48 48 48 50 49 47 49 49 50 50 53 53 48 48 50 54 55 56 58 58
6 11 18 9 2 3 10 13 4 12 13 9 8 11 16 14 15 17 16 18 24 28 32 37 39 39 40 41 45 48 50 52 52 53 53 51 50 51 53 56 57 54 55 56 57 58 59 61 61
16 19 6 11 5 5 7 18 7 13 16 14 17 17 20 22 20 21 22 22 25 25 27 31 37 41 43 46 47 51 54 55 55 57 56 55 55 53 55 60 61 61 63 64 64 64 63 66 65
14 11 11 6 5 2 9 17 11 11 14 18 22 22 21 21 21 18 17 20 24 29 32 33 33 33 40 47 49 52 53 52 54 54 55 54 54 56 58 61 63 65 67 65 66 66 67 68 64
23 22 14 6 7 2 1 13 10 10 13 20 21 22 23 22 20 20 18 16 12 14 21 27 33 33 33 37 41 45 48 50 50 49 50 47 45 46 49 52 56 61 64 62 63 66 68 70 70
25 33 28 12 8 7 4 7 3 15 29 28 29 23 28 30 29 28 26 25 21 18 15 15 19 26 28 29 30 33 37 40 44 45 47 45 46 44 45 47 49 53 56 58 56 60 63 67 66
25 6 19 25 13 12 6 5 5 12 24 35 33 35 34 35 36 36 32 30 30 28 23 20 15 10 17 19 23 24 26 27 24 30 36 40 40 38 39 43 45 50 52 58 59 59 63 65 69
5 17 16 7 15 12 10 6 7 10 17 20 28 32 33 35 39 47 47 43 38 32 29 26 23 18 16 9 7 12 15 19 23 25 30 32 35 39 39 39 42 44 47 51 54 57 60 63 67
25 20 18 11 4 13 22 16 4 4 9 16 23 29 30 34 37 42 48 50 49 44 42 40 37 33 30 25 19 15 16 18 20 24 27 27 29 31 33 35 38 41 45 50 52 54 56 59 64
4 24 6 4 7 15 5 8 11 12 15 12 15 24 28 31 36 44 48 48 47 46 44 43 44 45 41 38 35 32 29 26 25 26 28 28 29 30 31 33 35 39 42 45 48 52 56 59 64
16 18 9 15 10 8 2 12 10 10 7 7 14 20 26 32 35 41 42 42 41 39 37 34 33 34 34 33 31 29 27 28 29 30 31 32 34 36 37 38 38 39 41 43 46 50 54 56 59
11 8 4 12 4 6 14 9 6 2 5 9 20 27 29 30 35 36 37 38 37 37 37 36 33 31 30 29 27 25 24 24 25 27 29 32 35 37 39 41 42 42 42 44 45 49 51 52 57
3 10 6 1 12 8 9 13 15 19 12 15 23 26 26 29 35 32 36 36 35 35 34 33 35 35 35 32 31 31 30 29 29 30 32 34 36 39 41 43 45 48 51 54 57 58 55 51 54
8 9 7 6 2 6 10 8 20 20 14 18 16 16 20 24 27 28 29 32 33 33 34 34 34 34 35 37 38 37 36 34 34 36 38 41 43 46 49 53 57 59 60 62 64 65 66 65 62
4 5 4 7 8 2 2 9 24 18 11 10 7 14 19 23 26 26 27 29 32 34 35 36 37 37 39 40 41 42 44 44 44 44 44 47 50 53 56 57 57 59 60 60 62 65 65 66 68
Wind_Direction_500mb
58 166 161 173 220 234 210 148 123 138 150 106 144 176 254 360 325 27 161 169 171 171 172 168 168 163 162 157 152 149 149 154 141 144 146 140 130 116 112 104 95 89 86 81 74 75 78 82 85
75 157 199 229 243 216 148 131 169 118 119 138 143 136 188 83 55 208 148 166 168 175 171 171 169 165 166 162 158 158 162 169 160 152 149 139 135 129 123 105 99 92 87 81 71 66 67 75 77
117 164 246 254 252 255 134 165 137 122 126 155 149 113 115 78 251 170 175 167 167 175 173 174 172 170 170 169 166 162 167 169 165 159 156 154 152 151 136 120 114 107 105 87 74 61 49 40 47
127 203 145 252 189 90 14 124 145 148 134 136 150 143 108 173 167 182 175 169 169 175 173 174 173 175 176 178 175 175 177 176 185 186 184 183 183 177 159 166 190 201 136 103 61 35 14 360 4
101 229 222 238 210 114 204 146 166 155 134 140 179 129 119 189 179 173 174 175 174 175 175 177 178 183 184 184 185 186 198 202 199 192 199 208 213 216 218 222 228 238 241 256 265 281 291 297 305
212 255 226 208 140 230 199 173 162 167 138 136 193 153 116 174 162 164 173 177 176 181 180 182 187 187 189 193 193 198 204 206 206 217 225 230 234 236 239 240 244 252 258 269 272 272 279 287 294
295 251 234 177 189 190 89 154 183 166 149 139 137 209 130 175 167 170 175 178 182 185 188 188 191 197 201 201 203 207 209 213 221 230 235 242 249 249 248 250 253 258 264 268 270 272 273 276 279
290 257 206 185 203 134 137 168 192 193 132 144 163 104 112 186 182 171 178 181 187 191 194 197 198 201 205 211 214 217 220 225 231 235 238 245 251 255 253 256 257 261 263 267 268 269 271 275 277
174 232 215 201 177 138 153 190 170 177 137 165 188 103 163 185 186 177 182 188 192 197 200 203 206 209 215 218 218 221 229 239 247 250 251 252 256 261 264 265 265 264 263 264 268 271 274 276 279
227 237 195 85 161 165 174 187 165 187 172 200 210 238 236 202 197 195 194 196 200 203 204 208 212 215 217 223 229 233 239 242 248 252 256 257 261 260 260 261 260 260 262 265 267 269 271 275 279
197 233 167 165 118 121 158 164 165 191 197 234 228 206 236 217 207 210 210 213 213 211 213 214 216 220 223 226 230 235 241 247 254 259 261 263 264 265 264 266 267 266 266 271 272 274 273 274 278
225 220 192 156 152 126 151 136 175 217 71 114 110 230 255 233 222 219 223 225 224 223 224 225 226 226 229 232 237 243 247 251 253 256 258 260 264 265 264 266 268 269 269 270 271 273 274 276 279
242 190 192 133 167 142 137 132 301 242 229 252 281 270 274 244 240 238 231 231 236 234 231 230 230 232 235 238 241 245 250 253 257 260 261 263 265 268 269 268 267 267 269 270 273 275 276 278 279
67 216 154 193 216 224 190 158 283 55 214 242 266 281 287 270 256 250 248 249 248 251 244 239 240 239 239 243 244 249 254 257 258 260 262 264 265 267 268 269 269 269 272 274 276 274 277 279 280
124 203 202 214 198 178 189 219 222 250 268 289 292 293 299 292 274 267 268 264 265 265 259 255 253 246 245 249 251 253 256 258 259 261 262 264 267 269 270 271 271 274 276 277 275 276 277 278 278
160 216 223 136 179 172 213 240 133 321 318 301 295 296 290 297 301 304 295 285 275 269 268 265 258 256 255 255 257 258 260 262 263 266 268 268 268 270 271 273 274 277 278 278 278 279 280 280 282
177 204 211 193 151 134 222 244 117 56 42 15 346 309 292 315 357 329 312 295 278 271 266 261 259 258 259 260 260 262 262 263 265 266 266 267 269 270 271 274 277 278 277 276 278 280 280 281 282
177 200 186 204 75 191 188 238 164 345 348 326 309 310 332 338 338 320 308 293 283 275 268 266 262 256 256 258 258 258 259 261 263 265 268 272 273 275 274 275 277 278 278 278 278 279 279 280 280
164 142 157 112 68 227 220 256 278 336 319 319 337 339 348 352 352 343 325 303 283 275 271 266 262 265 256 257 260 263 266 269 271 274 276 276 276 276 274 274 276 277 278 279 278 278 279 280 282
199 198 192 115 63 257 55 278 332 347 28 30 19 18 17 22 22 15 17 12 348 306 289 277 264 259 258 257 266 271 271 274 276 279 279 280 281 282 280 278 277 278 279 280 279 278 279 279 278
198 216 219 216 113 87 284 238 73 82 50 48 44 42 37 34 30 33 33 30 25 17 359 329 287 266 260 259 261 265 270 274 279 283 285 289 289 288 284 283 281 281 282 281 280 281 281 281 283
204 192 165 153 168 233 330 235 122 73 60 51 44 46 43 40 43 48 45 41 36 34 27 24 16 311 274 269 266 272 278 283 287 290 293 297 294 291 287 285 283 283 283 284 285 283 283 285 282
174 163 152 166 198 190 210 255 120 138 61 57 48 46 43 45 46 53 55 52 47 42 39 37 31 29 31 10 302 284 292 294 294 299 300 296 297 297 293 289 285 283 284 283 283 283 284 283 281
134 113 85 78 101 230 222 211 140 94 113 86 66 52 42 43 46 53 56 57 56 53 51 50 47 45 40 33 27 13 353 339 327 321 321 319 317 314 310 304 296 291 286 285 284 282 278 277 282
154 150 125 151 212 252 128 166 64 110 92 70 53 52 47 44 48 46 47 48 49 51 50 47 45 46 43 43 43 39 32 23 15 4 357 353 348 343 338 330 323 317 310 301 292 285 282 280 279
177 196 183 190 195 169 136 185 124 91 21 47 66 63 55 47 44 44 42 41 40 39 38 36 30 23 22 22 20 16 9 4 358 352 346 342 339 337 334 330 326 323 320 317 311 302 291 284 278
171 181 92 103 91 174 143 80 102 180 68 85 71 60 49 40 42 40 36 32 30 28 25 22 22 20 13 9 4 358 351 342 336 329 323 317 316 316 317 319 320 321 322 320 316 309 304 295 288
177 132 135 41 156 184 164 171 160 177 110 97 66 53 46 37 35 33 30 28 25 22 18 12 9 7 5 3 2 1 355 349 343 337 331 326 321 316 313 310 309 310 312 313 312 310 306 298 291
141 178 76 87 12 161 151 125 136 126 99 87 72 52 39 29 24 24 21 18 16 13 10 9 6 5 1 359 357 354 350 348 345 341 338 335 332 327 321 316 312 309 308 307 306 304 303 300 296
68 97 102 207 170 61 26 112 136 105 109 113 82 39 28 23 19 17 13 12 8 5 0 358 357 357 357 354 349 346 342 340 338 335 331 328 325 323 319 316 313 310 307 305 302 300 299 298 298
Wind_Speed_850mb
6 13 8 3 9 8 4 6 2 11 14 6 22 5 1 6 4 6 12 35 37 44 40 37 32 27 26 26 24 25 27 22 19 19 16 13 11 11 11 12 13 13 14 15 15 17 17 18 19
6 9 4 5 9 11 7 5 10 8 10 19 16 7 5 5 2 1 21 38 44 42 40 38 34 30 28 26 23 24 23 20 17 15 14 12 10 9 10 10 9 9 10 11 12 12 11 13 15
4 5 6 5 4 5 5 7 12 15 13 14 11 1 3 3 2 8 16 41 47 43 39 38 34 32 29 28 24 23 23 18 15 13 12 11 9 7 7 6 4 5 5 7 7 8 7 8 10
3 2 1 9 4 3 4 6 13 23 7 5 5 9 5 5 3 11 30 42 44 44 40 38 34 32 27 26 27 23 20 17 13 12 10 9 8 6 5 4 3 2 1 1 1 2 3 4 5
1 3 7 5 2 1 2 1 17 17 9 6 4 7 4 4 7 17 40 42 43 43 40 37 35 30 29 26 25 25 22 16 13 11 10 10 9 8 6 6 5 5 4 4 4 5 6 7 7
4 3 9 10 2 0 1 9 17 9 7 9 3 7 5 8 10 21 38 38 41 40 39 36 35 31 30 28 25 23 21 18 16 13 12 11 11 11 12 12 10 10 8 8 9 10 11 12 14
4 5 4 3 1 3 4 15 13 10 9 8 4 2 5 10 17 22 37 37 42 41 38 35 35 32 30 29 28 26 25 22 21 21 18 16 15 15 15 16 15 15 14 14 14 14 15 16 18
2 5 6 5 6 5 10 11 4 7 6 6 6 2 7 14 17 25 37 37 42 41 39 36 34 33 33 31 28 27 27 28 26 23 21 20 20 20 20 20 20 19 18 19 19 19 20 21 22
3 7 9 6 9 7 11 11 5 6 6 6 6 2 4 8 20 28 39 38 42 45 43 40 36 33 31 31 31 30 30 29 27 26 25 25 24 23 23 23 23 22 22 22 22 22 22 22 22
9 8 7 3 2 5 13 9 12 8 8 8 6 11 9 11 23 28 38 43 46 48 48 44 41 37 34 32 30 31 32 32 33 32 30 29 27 26 26 26 24 22 21 22 23 24 25 26 26
6 15 8 7 3 3 11 9 8 8 7 8 6 10 14 16 25 28 32 37 41 45 48 48 46 42 39 37 34 34 34 34 35 34 33 34 32 32 31 30 28 28 28 26 28 29 31 31 32
11 7 8 11 7 7 8 8 7 9 5 8 3 7 10 16 21 24 26 30 36 41 43 45 47 46 43 41 39 38 39 38 38 38 37 39 39 38 36 36 34 35 34 35 35 36 37 39 39
9 4 5 2 6 5 7 2 3 9 8 13 12 8 8 13 17 20 22 23 25 33 39 43 45 46 45 46 46 45 43 43 39 41 40 40 42 43 41 41 41 41 40 40 41 43 44 45 45
2 4 2 2 6 4 6 4 3 1 7 10 11 10 10 12 17 21 24 25 27 23 24 33 39 42 43 46 46 45 44 43 43 43 41 42 43 45 46 46 48 46 44 44 45 48 49 51 51
4 6 5 9 5 4 8 9 13 7 14 14 13 11 13 13 18 23 24 28 29 29 29 28 29 35 42 44 46 47 48 45 47 47 45 46 46 46 47 50 52 50 46 48 50 53 53 55 56
8 4 13 7 9 1 9 25 8 6 6 7 13 14 17 17 18 19 20 26 30 32 34 34 35 36 37 42 45 48 48 48 50 49 47 49 49 50 50 53 53 48 48 50 54 55 56 58 58
6 11 18 9 2 3 10 13 4 12 13 9 8 11 16 14 15 17 16 18 24 28 32 37 39 39 40 41 45 48 50 52 52 53 53 51 50 51 53 56 57 54 55 56 57 58 59 61 61
16 19 6 11 5 5 7 18 7 13 16 14 17 17 20 22 20 21 22 22 25 25 27 31 37 41 43 46 47 51 54 55 55 57 56 55 55 53 55 60 61 61 63 64 64 64 63 66 65
14 11 11 6 5 2 9 17 11 11 14 18 22 22 21 21 21 18 17 20 24 29 32 33 33 33 40 47 49 52 53 52 54 54 55 54 54 56 58 61 63 65 67 65 66 66 67 68 64
23 22 14 6 7 2 1 13 10 10 13 20 21 22 23 22 20 20 18 16 12 14 21 27 33 33 33 37 41 45 48 50 50 49 50 47 45 46 49 52 56 61 64 62 63 66 68 70 70
25 33 28 12 8 7 4 7 3 15 29 28 29 23 28 30 29 28 26 25 21 18 15 15 19 26 28 29 30 33 37 40 44 45 47 45 46 44 45 47 49 53 56 58 56 60 63 67 66
25 6 19 25 13 12 6 5 5 12 24 35 33 35 34 35 36 36 32 30 30 28 23 20 15 10 17 19 23 24 26 27 24 30 36 40 40 38 39 43 45 50 52 58 59 59 63 65 69
5 17 16 7 15 12 10 6 7 10 17 20 28 32 33 35 39 47 47 43 38 32 29 26 23 18 16 9 7 12 15 19 23 25 30 32 35 39 39 39 42 44 47 51 54 57 60 63 67
25 20 18 11 4 13 22 16 4 4 9 16 23 29 30 34 37 42 48 50 49 44 42 40 37 33 30 25 19 15 16 18 20 24 27 27 29 31 33 35 38 41 45 50 52 54 56 59 64
4 24 6 4 7 15 5 8 11 12 15 12 15 24 28 31 36 44 48 48 47 46 44 43 44 45 41 38 35 32 29 26 25 26 28 28 29 30 31 33 35 39 42 45 48 52 56 59 64
16 18 9 15 10 8 2 12 10 10 7 7 14 20 26 32 35 41 42 42 41 39 37 34 33 34 34 33 31 29 27 28 29 30 31 32 34 36 37 38 38 39 41 43 46 50 54 56 59
11 8 4 12 4 6 14 9 6 2 5 9 20 27 29 30 35 36 37 38 37 37 37 36 33 31 30 29 27 25 24 24 25 27 29 32 35 37 39 41 42 42 42 44 45 49 51 52 57
3 10 6 1 12 8 9 13 15 19 12 15 23 26 26 29 35 32 36 36 35 35 34 33 35 35 35 32 31 31 30 29 29 30 32 34 36 39 41 43 45 48 51 54 57 58 55 51 54
8 9 7 6 2 6 10 8 20 20 14 18 16 16 20 24 27 28 29 32 33 33 34 34 34 34 35 37 38 37 36 34 34 36 38 41 43 46 49 53 57 59 60 62 64 65 66 65 62
4 5 4 7 8 2 2 9 24 18 11 10 7 14 19 23 26 26 27 29 32 34 35 36 37 37 39 40 41 42 44 44 44 44 44 47 50 53 56 57 57 59 60 60 62 65 65 66 68
Wind_Direction_850mb
58 166 161 173 220 234 210 148 123 138 150 106 144 176 254 360 325 27 161 169 171 171 172 168 168 163 162 157 152 149 149 154 141 144 146 140 130 116 112 104 95 89 86 81 74 75 78 82 85
75 157 199 229 243 216 148 131 169 118 119 138 143 136 188 83 55 208 148 166 168 175 171 171 169 165 166 162 158 158 162 169 160 152 149 139 135 129 123 105 99 92 87 81 71 66 67 75 77
117 164 246 254 252 255 134 165 137 122 126 155 149 113 115 78 251 170 175 167 167 175 173 174 172 170 170 169 166 162 167 169 165 159 156 154 152 151 136 120 114 107 105 87 74 61 49 40 47
127 203 145 252 189 90 14 124 145 148 134 136 150 143 108 173 167 182 175 169 169 175 173 174 173 175 176 178 175 175 177 176 185 186 184 183 183 177 159 166 190 201 136 103 61 35 14 360 4
101 229 222 238 210 114 204 146 166 155 134 140 179 129 119 189 179 173 174 175 174 175 175 177 178 183 184 184 185 186 198 202 199 192 199 208 213 216 218 222 228 238 241 256 265 281 291 297 305
212 255 226 208 140 230 199 173 162 167 138 136 193 153 116 174 162 164 173 177 176 181 180 182 187 187 189 193 193 198 204 206 206 217 225 230 234 236 239 240 244 252 258 269 272 272 279 287 294
295 251 234 177 189 190 89 154 183 166 149 139 137 209 130 175 167 170 175 178 182 185 188 188 191 197 201 201 203 207 209 213 221 230 235 242 249 249 248 250 253 258 264 268 270 272 273 276 279
290 257 206 185 203 134 137 168 192 193 132 144 163 104 112 186 182 171 178 181 187 191 194 197 198 201 205 211 214 217 220 225 231 235 238 245 251 255 253 256 257 261 263 267 268 269 271 275 277
174 232 215 201 177 138 153 190 170 177 137 165 188 103 163 185 186 177 182 188 192 197 200 203 206 209 215 218 218 221 229 239 247 250 251 252 256 261 264 265 265 264 263 264 268 271 274 276 279
227 237 195 85 161 165 174 187 165 187 172 200 210 238 236 202 197 195 194 196 200 203 204 208 212 215 217 223 229 233 239 242 248 252 256 257 261 260 260 261 260 260 262 265 267 269 271 275 279
197 233 167 165 118 121 158 164 165 191 197 234 228 206 236 217 207 210 210 213 213 211 213 214 216 220 223 226 230 235 241 247 254 259 261 263 264 265 264 266 267 266 266 271 272 274 273 274 278
225 220 192 156 152 126 151 136 175 217 71 114 110 230 255 233 222 219 223 225 224 223 224 225 226 226 229 232 237 243 247 251 253 256 258 260 264 265 264 266 268 269 269 270 271 273 274 276 279
242 190 192 133 167 142 137 132 301 242 229 252 281 270 274 244 240 238 231 231 236 234 231 230 230 232 235 238 241 245 250 253 257 260 261 263 265 268 269 268 267 267 269 270 273 275 276 278 279
67 216 154 193 216 224 190 158 283 55 214 242 266 281 287 270 256 250 248 249 248 251 244 239 240 239 239 243 244 249 254 257 258 260 262 264 265 267 268 269 269 269 272 274 276 274 277 279 280
124 203 202 214 198 178 189 219 222 250 268 289 292 293 299 292 274 267 268 264 265 265 259 255 253 246 245 249 251 253 256 258 259 261 262 264 267 269 270 271 271 274 276 277 275 276 277 278 278
160 216 223 136 179 172 213 240 133 321 318 301 295 296 290 297 301 304 295 285 275 269 268 265 258 256 255 255 257 258 260 262 263 266 268 268 268 270 271 273 274 277 278 278 278 279 280 280 282
177 204 211 193 151 134 222 244 117 56 42 15 346 309 292 315 357 329 312 295 278 271 266 261 259 258 259 260 260 262 262 263 265 266 266 267 269 270 271 274 277 278 277 276 278 280 280 281 282
177 200 186 204 75 191 188 238 164 345 348 326 309 310 332 338 338 320 308 293 283 275 268 266 262 256 256 258 258 258 259 261 263 265 268 272 273 275 274 275 277 278 278 278 278 279 279 280 280
164 142 157 112 68 227 220 256 278 336 319 319 337 339 348 352 352 343 325 303 283 275 271 266 262 265 256 257 260 263 266 269 271 274 276 276 276 276 274 274 276 277 278 279 278 278 279 280 282
199 198 192 115 63 257 55 278 332 347 28 30 19 18 17 22 22 15 17 12 348 306 289 277 264 259 258 257 266 271 271 274 276 279 279 280 281 282 280 278 277 278 279 280 279 278 279 279 278
198 216 219 216 113 87 284 238 73 82 50 48 44 42 37 34 30 33 33 30 25 17 359 329 287 266 260 259 261 265 270 274 279 283 285 289 289 288 284 283 281 281 282 281 280 281 281 281 283
204 192 165 153 168 233 330 235 122 73 60 51 44 46 43 40 43 48 45 41 36 34 27 24 16 311 274 269 266 272 278 283 287 290 293 297 294 291 287 285 283 283 283 284 285 283 283 285 282
174 163 152 166 198 190 210 255 120 138 61 57 48 46 43 45 46 53 55 52 47 42 39 37 31 29 31 10 302 284 292 294 294 299 300 296 297 297 293 289 285 283 284 283 283 283 284 283 281
134 113 85 78 101 230 222 211 140 94 113 86 66 52 42 43 46 53 56 57 56 53 51 50 47 45 40 33 27 13 353 339 327 321 321 319 317 314 310 304 296 291 286 285 284 282 278 277 282
154 150 125 151 212 252 128 166 64 110 92 70 53 52 47 44 48 46 47 48 49 51 50 47 45 46 43 43 43 39 32 23 15 4 357 353 348 343 338 330 323 317 310 301 292 285 282 280 279
177 196 183 190 195 169 136 185 124 91 21 47 66 63 55 47 44 44 42 41 40 39 38 36 30 23 22 22 20 16 9 4 358 352 346 342 339 337 334 330 326 323 320 317 311 302 291 284 278
171 181 92 103 91 174 143 80 102 180 68 85 71 60 49 40 42 40 36 32 30 28 25 22 22 20 13 9 4 358 351 342 336 329 323 317 316 316 317 319 320 321 322 320 316 309 304 295 288
177 132 135 41 156 184 164 171 160 177 110 97 66 53 46 37 35 33 30 28 25 22 18 12 9 7 5 3 2 1 355 349 343 337 331 326 321 316 313 310 309 310 312 313 312 310 306 298 291
141 178 76 87 12 161 151 125 136 126 99 87 72 52 39 29 24 24 21 18 16 13 10 9 6 5 1 359 357 354 350 348 345 341 338 335 332 327 321 316 312 309 308 307 306 304 303 300 296
68 97 102 207 170 61 26 112 136 105 109 113 82 39 28 23 19 17 13 12 8 5 0 358 357 357 357 354 349 346 342 340 338 335 331 328 325 323 319 316 313 310 307 305 302 300 299 298 298